Current weather by "City, St" or "zip code"  
 
Advertise Here

Current Conditions: Bentonville, Bentonville Municipal Airport/Louise M Thaden Field, AR

A Few Clouds


47.0 F

Last Updated on Nov 23 2020, 7:56 pm CST
Humidity: 69%
Wind Speed: SE 8.1 mph
Barometer 30.14 in
Dewpoint: 37.0 F
Visibility: 10.00 mi
Precip: --
Heat Index: NA
Wind Chill: 43 F
Current conditions at:

Bentonville, Bentonville Municipal Airport/Louise M Thaden Field, AR (KVBT)

Lat: 36.35 Lon: 94.21667

Local Radar Image active severe weather and emergency alerts image image weather storm and storm spotter reports image weather observation monitoring service image
Local
Radar
Active
Alerts
Storm Reports Obs
Monitoring

Sign-up For Email & Text Message Weather Alert Notification Services


Advertise Here

Observation History for Bentonville, Bentonville Municipal Airport/Louise M Thaden Field, AR


Time Wind
(mph)
Vis
(mi)
Weather Precip (in) Temperature (F) Relative
Humidity
Wind
Chill
(F)
Heat
Index
(F)
Pressure
Air Dwpt altimeter
(in)
sea level
(mb)
Rmks
7:56 pm CST SE 8.1 10.00 A Few Clouds -- 47.0 37.0 69% 43 NA 30.14 1021.7
6:56 pm CST SE 10.4 10.00 Fair -- 49.0 36.0 61% 45 NA 30.16 1022.3
5:56 pm CST SE 10.4 10.00 Fair -- 50.0 32.0 50% 46 NA 30.17 1022.3
3:56 pm CST SE 11.5 10.00 Fair -- 54.0 30.9 42% 51 NA 30.18 1023.0
1:56 pm CST SE 8.1 10.00 Fair -- 56.0 35.1 46% 54 NA 30.23 1024.3
12:56 pm CST S 10.4 10.00 Fair -- 53.0 36.0 52% 50 NA 30.27 1026.0
11:56 am CST SE 13.8 10.00 Fair -- 51.0 37.0 59% 46 NA 30.30 1027.0
10:56 am CST SE 13.8 G 19.6 10.00 Fair -- 49.0 36.0 61% 44 NA 30.35 1028.7
9:56 am CST SE 6.9 10.00 Fair -- 44.0 39.0 83% 40 NA 30.37 1029.4
8:56 am CST S 5.8 10.00 Overcast -- 39.0 39.0 100% 35 NA 30.38 1030.0
7:56 am CST SE 4.6 0.50 Fog -- 32.0 32.0 100% 27 NA 30.37 1029.5
6:56 am CST S 4.6 0.25 Unknown Precip Freezing Fog -- 31.0 30.9 100% 26 NA 30.36 1029.3
5:56 am CST S 3.5 6.00 Fog/Mist -- 32.0 32.0 100% NA NA 30.36 1029.0
4:56 am CST E 5.8 7.00 Fair -- 32.0 32.0 100% 26 NA 30.35 1028.9
3:56 am CST N 0.0 5.00 Fog/Mist -- 30.0 30.0 100% NA NA 30.38 1029.8
2:56 am CST N 0.0 1.25 Fog/Mist -- 30.0 30.0 100% NA NA 30.39 1030.1
1:56 am CST N 0.0 5.00 Fog/Mist -- 31.0 30.9 100% NA NA 30.39 1030.1
12:56 am CST N 0.0 3.00 Fog/Mist -- 34.0 34.0 100% NA NA 30.39 1030.2
11:56 pm CST N 0.0 3.00 Fog/Mist -- 35.0 35.1 100% NA NA 30.40 1030.5
10:56 pm CST N 0.0 6.00 Fog/Mist -- 36.0 36.0 100% NA NA 30.40 1030.4
9:56 pm CST N 0.0 5.00 Fog/Mist -- 37.0 37.0 100% NA NA 30.42 1031.0
8:56 pm CST N 0.0 10.00 Fair -- 38.0 37.9 100% NA NA 30.41 1030.7

Regional Weather Observation


Grove, Grove Municipal Airport, OK (KGMJ)

Partly Cloudy
50.0 F

Northwest Arkansas Regional Airport, AR (KXNA)

Fair
47.0 F

Rogers - Rogers Executive Airport - Carter Field, AR (KROG)

Fair
47.0 F

Siloam Springs, Smith Field Airport, AR (KSLG)

Fair
47.0 F

Monett, MO (KHFJ)

Overcast
46.0 F

Springdale Municipal, AR (KASG)

Fair
48.0 F